Location: Unspecified
(0.0000°N, 0.0000°E)
Time: 06:33:37
(UTC+00:00)

S-56A Canister/Altair - Pass Details

Date: 23 November 2019
Orbit: 633 x 2499 km, 38.9° (Epoch: 10 December)

Event Time Altitude Azimuth Distance (km) Brightness Sun altitude
Rises 10:43:27 0° 218° (SW) 5,749 12.1 64.5°
Reaches altitude 10° 10:47:09 10° 213° (SSW) 4,906 11.9 65.0°
Maximum altitude 11:01:21 55° 139° (SE) 2,873 12.5 66.9°
Drops below altitude 10° 11:15:11 10° 65° (ENE) 4,827 11.7 68.3°
Sets 11:18:45 0° 61° (ENE) 5,657 11.9 68.6°
